Regional Weather Roundup
Issued by NWS

Home | Current Version | Previous Version | Text Only | Print | Product List | Glossary Off
Versions: 1 2 3 4 5 6 7 8 9 10 11 12 13 14 15 16 17 18 19 20 21 22 23 24 25 26 27 28 29 30 31 32 33 34 35 36 37 38 39 40 41 42 43 44 45 46 47 48 49 50

000
ASUS43 KDMX 211101
RWRIA

WEATHER ROUNDUP FOR IOWA
NATIONAL WEATHER SERVICE DES MOINES IA
600 AM CDT THU SEP 21 2017

NOTE: "FAIR" INDICATES FEW OR NO CLOUDS BELOW 12,000 FEET WITH NO
SIGNIFICANT WEATHER AND/OR OBSTRUCTIONS TO VISIBILITY.

* - THESE STATIONS ARE NOT NWS STATIONS...THUS NOT UNDER NWS
QUALITY CONTROL.  THEY ALSO DO NOT REPORT WEATHER SUCH
AS PRECIPITATION OR FOG.

IAZ001>003-012>014-020>022-031>034-043>046-211200-
   NORTHWEST IOWA

CITY           SKY/WX    TMP DP  RH WIND       PRES   REMARKS
CARROLL *      CLOUDY    55  55 100 CALM      29.92S
DENISON *      CLOUDY    63  57  82 E7        29.92R
LE MARS *      CLEAR     61  52  72 E13       29.89F
ORANGE CITY *  CLEAR     55  52  88 E7        29.92R
SHELDON *      CLEAR     54  50  87 E8        29.90F
SIOUX CITY     CLEAR     57  52  83 E7        29.88S
SPENCER        CLEAR     51  48  89 E7        29.94F
STORM LAKE *   CLEAR     55  50  82 E14       29.93S
$$

IAZ055>058-069>071-079>083-090>094-211200-
   SOUTHWEST IOWA

CITY           SKY/WX    TMP DP  RH WIND       PRES   REMARKS
AUDUBON *      CLOUDY    64  57  77 E5        29.91F
CLARINDA *     CLOUDY    68  64  88 CALM      29.89R
COUNCIL BLFS * PTCLDY    66  63  88 E9G15     29.86S
CRESTON *      CLOUDY    68  63  83 E12       29.91S
LAMONI         CLOUDY    69  68  96 NE6       29.90S
RED OAK *      MOCLDY    68  61  77 E5        29.87S
SHENANDOAH *   PTCLDY    68  63  83 NE5       29.86S
$$

IAZ047>049-059>061-072>074-084-211200-
   CENTRAL IOWA

CITY           SKY/WX    TMP DP  RH WIND       PRES   REMARKS
AMES           MOCLDY    65  63  93 NE5       29.93R
ANKENY *       CLOUDY    66  63  88 E6        29.92S
BOONE *        CLOUDY    63  59  88 NE8       29.92F
CHARITON *     CLOUDY    70  70 100 SE8       29.93R
DES MOINES     TSTM      68  65  90 E7        29.91R
GRINNELL*      CLOUDY    71  67  85 S5        29.93S
KNOXVILLE *    CLOUDY    70  70 100 SE12      29.92R
MARSHALLTOWN   CLOUDY    65  65 100 E6        29.93R
NEWTON *       CLOUDY    68  66  94 S5        29.92F
PELLA *        CLOUDY    70  69  95 SE8       29.94F
PERRY *        MOCLDY    67  62  85 E5        29.92S
$$

IAZ004>006-015-016-023>025-035-036-211200-
   NORTH CENTRAL IOWA

CITY           SKY/WX    TMP DP  RH WIND       PRES   REMARKS
ALGONA *       CLEAR     54  52  94 E8        29.96S
CLARION *      CLOUDY    59  54  82 E12G17    29.95S
ESTHERVILLE    CLEAR     48  47  96 E7        29.95F
FORT DODGE *   CLEAR     55  52  89 E6        29.96R
MASON CITY     CLEAR     51  48  89 NE3       29.99R
FOREST CITY *    N/A     57  50  77 CALM      29.98R
IOWA FALLS *     N/A     61  57  88 NE3       29.97R
$$

IAZ007>011-017>019-026>030-037>042-050>054-066-211200-
   NORTHEAST IOWA

CITY           SKY/WX    TMP DP  RH WIND       PRES   REMARKS
CEDAR RAPIDS   CLOUDY    67  66  97 S9        29.95R
CHARLES CITY * CLEAR     57  57 100 NE6       29.98R
CLINTON *      CLOUDY   N/A N/A N/A W8        29.95R
DECORAH *      CLOUDY    59  57  94 CALM      29.98R
DUBUQUE        CLOUDY    66  64  93 CALM      29.97R
MONTICELLO *   CLOUDY    66  64  94 CALM      29.95R
OELWEIN *      CLOUDY    66  66 100 E3        29.96S
WATERLOO       CLOUDY    63  61  93 N3        29.93F
$$

IAZ064-065-067-068-078-211200-
   EAST CENTRAL IOWA

CITY           SKY/WX    TMP DP  RH WIND       PRES   REMARKS
DAVENPORT      LGT RAIN  74  59  59 S18G29    29.95F
IOWA CITY      CLOUDY    71  65  81 SE8       29.97R
MUSCATINE *      N/A    N/A N/A N/A MISG        N/A
QUAD CITIES    RAIN      69  66  90 S5        29.99R
$$

IAZ062-063-075>077-085>089-095>099-211200-
   SOUTHEAST IOWA

CITY           SKY/WX    TMP DP  RH WIND       PRES   REMARKS
BURLINGTON     CLOUDY    70  68  93 W9G21     30.02R THUNDER
FAIRFIELD *    CLOUDY    68  68 100 CALM      30.01R FOG
FORT MADISON * LGT RAIN  70  68  94 NE12      29.99F
KEOKUK *       CLOUDY    72  66  83 NE7       29.98F
OSKALOOSA *    LGT RAIN  68  67  97 S14       29.94F
OTTUMWA        LGT RAIN  70  68  93 S6        29.96S
WASHINGTON *   LGT RAIN  68  68 100 S15G23    29.99R
$$

ABBREVIATIONS USED IN REMARKS
   TC - TEMPERATURES IN CELSIUS
  WCI - WIND CHILL INDEX
   HX - HEAT INDEX
  VSB - VISIBILITY
$$





USA.gov is the U.S. government's official web portal to all federal, state and local government web resources and services.